When you browse on this site, cookies collect data to enhance your experience and personalize the content and advertising you see.
Visit our Privacy Policy to learn more. By continuing to use the site, you agree to this use of cookies and data.
  • In Czech Republic
  • List of Countries
  • For 7 days
  • Water Temperature
  • Weather Map
  • Weather Widgets
  • user-avatar
    Login

    Hourly Weather Issy-les-Moulineaux

    Today, 29 May, Friday

    Time Temperature Precipitation Wind Pressure Humidity
    00:00 +14°C° 0 mm 4 mps 761 mmHg 66%
    01:00 +14°C° 0 mm 3 mps 760 mmHg 67%
    02:00 +13°C° 0 mm 3 mps 760 mmHg 67%
    03:00 +12°C° 0 mm 3 mps 760 mmHg 68%
    04:00 +13°C° 0 mm 3 mps 760 mmHg 67%
    05:00 +13°C° 0 mm 3 mps 760 mmHg 66%
    06:00 +14°C° 0 mm 3 mps 760 mmHg 61%
    07:00 +17°C° 0 mm 4 mps 760 mmHg 55%
    08:00 +18°C° 0 mm 4 mps 760 mmHg 49%
    09:00 +20°C° 0 mm 4 mps 760 mmHg 43%
    10:00 +21°C° 0 mm 4 mps 760 mmHg 41%
    11:00 +22°C° 0 mm 5 mps 760 mmHg 40%
    12:00 +23°C° 0 mm 4 mps 759 mmHg 38%
    13:00 +23°C° 0 mm 5 mps 759 mmHg 40%
    14:00 +23°C° 0 mm 5 mps 758 mmHg 41%
    15:00 +23°C° 0 mm 5 mps 758 mmHg 43%
    16:00 +22°C° 0 mm 4 mps 758 mmHg 47%
    17:00 +22°C° 0 mm 4 mps 758 mmHg 50%
    18:00 +21°C° 0 mm 4 mps 758 mmHg 54%
    19:00 +20°C° 0 mm 3 mps 758 mmHg 56%
    20:00 +18°C° 0 mm 3 mps 758 mmHg 58%
    21:00 +17°C° 0 mm 2 mps 758 mmHg 60%
    22:00 +16°C° 0 mm 2 mps 758 mmHg 63%
    23:00 +16°C° 0 mm 2 mps 758 mmHg 66%

    Tomorrow, 30 May, Saturday

    Time Temperature Precipitation Wind Pressure Humidity
    00:00 +15°C° 0 mm 2 mps 757 mmHg 68%
    01:00 +15°C° 0 mm 2 mps 757 mmHg 69%
    02:00 +14°C° 0 mm 2 mps 757 mmHg 71%
    03:00 +14°C° 0 mm 2 mps 757 mmHg 72%
    04:00 +14°C° 0 mm 2 mps 757 mmHg 70%
    05:00 +15°C° 0 mm 2 mps 757 mmHg 67%
    06:00 +14°C° 0 mm 3 mps 757 mmHg 64%
    07:00 +17°C° 0 mm 3 mps 757 mmHg 59%
    08:00 +19°C° 0 mm 3 mps 757 mmHg 53%
    09:00 +20°C° 0 mm 4 mps 757 mmHg 47%
    10:00 +21°C° 0 mm 4 mps 757 mmHg 45%
    11:00 +22°C° 0 mm 4 mps 757 mmHg 43%
    12:00 +23°C° 0 mm 5 mps 757 mmHg 42%
    13:00 +23°C° 0 mm 5 mps 756 mmHg 42%
    14:00 +23°C° 0 mm 5 mps 756 mmHg 43%
    15:00 +23°C° 0 mm 5 mps 756 mmHg 43%
    16:00 +22°C° 0 mm 5 mps 756 mmHg 48%
    17:00 +21°C° 0 mm 4 mps 755 mmHg 52%
    18:00 +21°C° 0 mm 4 mps 755 mmHg 57%
    19:00 +19°C° 0 mm 4 mps 755 mmHg 60%
    20:00 +18°C° 0 mm 3 mps 756 mmHg 62%
    21:00 +17°C° 0 mm 3 mps 756 mmHg 65%
    22:00 +16°C° 0 mm 3 mps 756 mmHg 65%
    23:00 +16°C° 0 mm 3 mps 756 mmHg 65%

    Day after tomorrow, 31 May, Sunday

    Time Temperature Precipitation Wind Pressure Humidity
    00:00 +14°C° 0 mm 3 mps 756 mmHg 65%
    01:00 +13°C° 0 mm 3 mps 756 mmHg 64%
    02:00 +13°C° 0 mm 3 mps 756 mmHg 63%
    03:00 +12°C° 0 mm 3 mps 756 mmHg 62%
    04:00 +12°C° 0 mm 4 mps 756 mmHg 61%
    05:00 +13°C° 0 mm 4 mps 756 mmHg 61%
    06:00 +13°C° 0 mm 4 mps 756 mmHg 61%
    07:00 +15°C° 0 mm 5 mps 756 mmHg 57%
    08:00 +16°C° 0 mm 5 mps 756 mmHg 53%
    09:00 +17°C° 0 mm 6 mps 756 mmHg 49%
    10:00 +19°C° 0 mm 6 mps 756 mmHg 47%
    11:00 +20°C° 0 mm 6 mps 756 mmHg 46%
    12:00 +21°C° 0 mm 6 mps 756 mmHg 44%
    13:00 +22°C° 0 mm 6 mps 756 mmHg 45%
    14:00 +22°C° 0 mm 5 mps 756 mmHg 46%
    15:00 +22°C° 0 mm 5 mps 755 mmHg 47%
    16:00 +21°C° 0 mm 5 mps 755 mmHg 50%
    17:00 +21°C° 0 mm 5 mps 755 mmHg 54%
    18:00 +20°C° 0 mm 4 mps 755 mmHg 57%
    19:00 +19°C° 0 mm 4 mps 756 mmHg 58%
    20:00 +18°C° 0 mm 4 mps 756 mmHg 58%
    21:00 +15°C° 0 mm 4 mps 756 mmHg 59%
    22:00 +15°C° 0 mm 4 mps 756 mmHg 62%
    23:00 +14°C° 0 mm 3 mps 756 mmHg 64%

    1 June, Monday

    Time Temperature Precipitation Wind Pressure Humidity
    00:00 +13°C° 0 mm 3 mps 756 mmHg 67%
    01:00 +13°C° 0 mm 3 mps 756 mmHg 67%
    02:00 +12°C° 0 mm 3 mps 756 mmHg 67%
    03:00 +12°C° 0 mm 3 mps 755 mmHg 68%
    04:00 +12°C° 0 mm 4 mps 755 mmHg 67%
    05:00 +13°C° 0 mm 4 mps 756 mmHg 66%
    06:00 +13°C° 0 mm 4 mps 756 mmHg 66%
    07:00 +15°C° 0 mm 4 mps 756 mmHg 61%
    08:00 +18°C° 0 mm 4 mps 756 mmHg 57%
    09:00 +20°C° 0 mm 5 mps 756 mmHg 52%
    10:00 +21°C° 0 mm 5 mps 756 mmHg 50%
    11:00 +22°C° 0 mm 5 mps 756 mmHg 47%
    12:00 +23°C° 0 mm 5 mps 756 mmHg 45%
    13:00 +23°C° 0 mm 5 mps 755 mmHg 46%
    14:00 +25°C° 0 mm 5 mps 755 mmHg 46%
    15:00 +25°C° 0 mm 5 mps 755 mmHg 47%
    16:00 +23°C° 0 mm 4 mps 755 mmHg 51%
    17:00 +23°C° 0 mm 4 mps 755 mmHg 55%
    18:00 +22°C° 0 mm 3 mps 755 mmHg 59%
    19:00 +21°C° 0 mm 3 mps 755 mmHg 64%
    20:00 +20°C° 0 mm 3 mps 755 mmHg 68%
    21:00 +19°C° 0 mm 3 mps 755 mmHg 72%
    22:00 +18°C° 0 mm 3 mps 755 mmHg 74%
    23:00 +17°C° 0 mm 3 mps 755 mmHg 76%

    2 June, Tuesday

    Time Temperature Precipitation Wind Pressure Humidity
    00:00 +16°C° 0 mm 3 mps 755 mmHg 78%
    01:00 +16°C° 0 mm 2 mps 754 mmHg 78%
    02:00 +15°C° 0 mm 2 mps 754 mmHg 78%
    03:00 +15°C° 0 mm 2 mps 754 mmHg 78%
    04:00 +15°C° 0 mm 2 mps 754 mmHg 75%
    05:00 +16°C° 0 mm 2 mps 754 mmHg 72%
    06:00 +16°C° 0 mm 2 mps 754 mmHg 70%
    07:00 +18°C° 0 mm 2 mps 754 mmHg 65%
    08:00 +20°C° 0 mm 3 mps 754 mmHg 59%
    09:00 +22°C° 0 mm 3 mps 754 mmHg 54%
    10:00 +24°C° 0 mm 3 mps 754 mmHg 49%
    11:00 +25°C° 0 mm 3 mps 753 mmHg 45%
    12:00 +27°C° 0 mm 3 mps 753 mmHg 41%
    13:00 +27°C° 0 mm 3 mps 752 mmHg 41%
    14:00 +27°C° 0 mm 2 mps 752 mmHg 40%
    15:00 +27°C° 0 mm 2 mps 751 mmHg 40%
    16:00 +27°C° 0 mm 2 mps 751 mmHg 45%
    17:00 +26°C° 0 mm 2 mps 750 mmHg 49%
    18:00 +25°C° 0 mm 2 mps 750 mmHg 54%
    19:00 +24°C° 0 mm 2 mps 750 mmHg 57%
    20:00 +21°C° 0 mm 2 mps 749 mmHg 60%
    21:00 +20°C° 0 mm 2 mps 749 mmHg 63%
    22:00 +20°C° 0 mm 1 mps 749 mmHg 66%
    23:00 +19°C° 0 mm 1 mps 748 mmHg 69%

    3 June, Wednesday

    Time Temperature Precipitation Wind Pressure Humidity
    00:00 +18°C° 0 mm 1 mps 748 mmHg 72%
    01:00 +18°C° 0 mm 1 mps 747 mmHg 74%
    02:00 +15°C° 0 mm 0 mps 747 mmHg 75%
    03:00 +15°C° 0 mm 0 mps 746 mmHg 76%
    04:00 +18°C° 0 mm 1 mps 746 mmHg 75%
    05:00 +18°C° 0 mm 1 mps 745 mmHg 73%
    06:00 +19°C° 0 mm 1 mps 745 mmHg 72%
    07:00 +20°C° 0.1 mm 1 mps 745 mmHg 68%
    08:00 +22°C° 0.1 mm 1 mps 745 mmHg 64%
    09:00 +23°C° 0.1 mm 1 mps 744 mmHg 60%
    10:00 +24°C° 0.4 mm 1 mps 744 mmHg 57%
    11:00 +24°C° 0.4 mm 1 mps 744 mmHg 55%
    12:00 +25°C° 0.4 mm 1 mps 743 mmHg 52%
    13:00 +24°C° 0.7 mm 2 mps 743 mmHg 56%
    14:00 +24°C° 0.7 mm 2 mps 742 mmHg 59%
    15:00 +23°C° 0.7 mm 2 mps 742 mmHg 63%
    16:00 +23°C° 0.9 mm 2 mps 742 mmHg 65%
    17:00 +21°C° 0.9 mm 2 mps 742 mmHg 67%
    18:00 +21°C° 0.9 mm 3 mps 741 mmHg 69%
    19:00 +20°C° 0.2 mm 3 mps 741 mmHg 73%
    20:00 +19°C° 0.2 mm 3 mps 741 mmHg 76%
    21:00 +17°C° 0.2 mm 3 mps 741 mmHg 80%
    22:00 +17°C° 0.6 mm 2 mps 741 mmHg 83%
    23:00 +16°C° 0.6 mm 2 mps 741 mmHg 85%
    Show more